�������l�o���
Date,Time,MP-1(��Sv/h),MP-2(��Sv/h),MP-3(��Sv/h),MP-4(��Sv/h),MP-5(��Sv/h),MP-6(��Sv/h),MP-7(��Sv/h),MP-8(��Sv/h),����,����(m/s),���J
2017/08/12,00:00,0.948,1.482,0.982,1.777,1.211,0.509,0.943,0.873,�k�k��,3.0,��
2017/08/12,00:10,0.945,1.482,0.982,1.780,1.212,0.511,0.943,0.873,�k��,3.6,��
2017/08/12,00:20,0.948,1.484,0.982,1.780,1.211,0.511,0.944,0.870,�k��,4.0,��
2017/08/12,00:30,0.946,1.483,0.983,1.777,1.212,0.512,0.942,0.874,�k�k��,4.4,��
2017/08/12,00:40,0.949,1.482,0.983,1.779,1.210,0.511,0.943,0.872,�k��,4.2,��
2017/08/12,00:50,0.948,1.479,0.982,1.779,1.212,0.511,0.945,0.874,�k�k��,4.6,��
2017/08/12,01:00,0.946,1.483,0.982,1.779,1.209,0.510,0.943,0.872,�k�k��,5.0,��
2017/08/12,01:10,0.950,1.481,0.981,1.779,1.210,0.511,0.943,0.873,�k�k��,5.6,��
2017/08/12,01:20,0.946,1.483,0.985,1.779,1.210,0.510,0.944,0.874,�k�k��,4.9,��
2017/08/12,01:30,0.945,1.483,0.983,1.781,1.211,0.513,0.944,0.873,�k�k��,5.4,��
2017/08/12,01:40,0.946,1.483,0.982,1.782,1.211,0.511,0.943,0.873,�k�k��,5.6,��
2017/08/12,01:50,0.946,1.485,0.983,1.779,1.212,0.512,0.942,0.874,�k�k��,5.3,��
2017/08/12,02:00,0.948,1.485,0.981,1.779,1.209,0.511,0.944,0.875,�k�k��,4.9,��
2017/08/12,02:10,0.947,1.484,0.982,1.780,1.207,0.513,0.944,0.873,�k�k��,5.4,��
2017/08/12,02:20,0.948,1.483,0.983,1.779,1.210,0.511,0.942,0.874,�k�k��,5.4,��
2017/08/12,02:30,0.948,1.483,0.982,1.780,1.210,0.511,0.943,0.873,�k�k��,5.5,�L
2017/08/12,02:40,0.946,1.482,0.984,1.781,1.208,0.511,0.945,0.874,�k�k��,5.8,�L
2017/08/12,02:50,0.948,1.483,0.982,1.779,1.210,0.511,0.942,0.873,�k�k��,6.8,�L
2017/08/12,03:00,0.947,1.483,0.982,1.779,1.212,0.512,0.942,0.873,�k�k��,6.2,�L
2017/08/12,03:10,0.950,1.485,0.985,1.782,1.210,0.513,0.944,0.874,�k�k��,5.8,�L
2017/08/12,03:20,0.947,1.484,0.984,1.783,1.211,0.512,0.944,0.873,�k�k��,5.2,�L
2017/08/12,03:30,0.948,1.482,0.984,1.781,1.210,0.510,0.942,0.873,�k��,5.2,�L
2017/08/12,03:40,0.948,1.487,0.984,1.781,1.209,0.513,0.942,0.873,�k�k��,4.8,�L
2017/08/12,03:50,0.947,1.486,0.985,1.781,1.212,0.514,0.943,0.872,�k�k��,5.3,�L
2017/08/12,04:00,0.945,1.485,0.984,1.780,1.211,0.514,0.944,0.873,�k�k��,6.7,�L
2017/08/12,04:10,0.949,1.483,0.985,1.781,1.212,0.513,0.943,0.872,�k�k��,6.5,�L
2017/08/12,04:20,0.948,1.484,0.985,1.779,1.212,0.515,0.944,0.873,�k�k��,6.8,�L
2017/08/12,04:30,0.948,1.483,0.986,1.781,1.209,0.514,0.945,0.872,�k�k��,7.2,�L
2017/08/12,04:40,0.947,1.483,0.986,1.781,1.209,0.513,0.944,0.871,�k�k��,7.1,�L
2017/08/12,04:50,0.946,1.480,0.984,1.780,1.210,0.512,0.943,0.871,�k�k��,6.5,�L
2017/08/12,05:00,0.946,1.477,0.983,1.782,1.211,0.514,0.941,0.871,�k�k��,6.5,�L
2017/08/12,05:10,0.944,1.476,0.985,1.779,1.211,0.513,0.942,0.870,�k�k��,5.9,�L
2017/08/12,05:20,0.945,1.477,0.982,1.779,1.211,0.513,0.940,0.868,�k�k��,6.3,�L
2017/08/12,05:30,0.943,1.478,0.982,1.779,1.208,0.513,0.940,0.869,�k�k��,5.7,�L
2017/08/12,05:40,0.946,1.476,0.982,1.779,1.208,0.513,0.940,0.869,�k�k��,6.0,�L
2017/08/12,05:50,0.944,1.475,0.981,1.775,1.207,0.514,0.943,0.871,�k�k��,5.8,�L
2017/08/12,06:00,0.942,1.474,0.982,1.777,1.210,0.511,0.941,0.870,�k�k��,6.4,�L
2017/08/12,06:10,0.944,1.474,0.983,1.780,1.206,0.515,0.939,0.868,�k�k��,6.1,�L
2017/08/12,06:20,0.943,1.472,0.980,1.779,1.206,0.516,0.942,0.867,�k�k��,7.0,�L
2017/08/12,06:30,0.943,1.472,0.982,1.778,1.205,0.513,0.941,0.868,�k�k��,5.9,�L
2017/08/12,06:40,0.942,1.473,0.981,1.776,1.205,0.516,0.942,0.869,�k�k��,6.1,�L
2017/08/12,06:50,0.942,1.473,0.978,1.773,1.205,0.514,0.941,0.868,�k�k��,5.3,�L
2017/08/12,07:00,0.942,1.472,0.982,1.774,1.203,0.514,0.941,0.870,�k�k��,6.0,�L
2017/08/12,07:10,0.940,1.473,0.980,1.775,1.204,0.513,0.941,0.870,�k�k��,5.0,�L
2017/08/12,07:20,0.945,1.471,0.979,1.774,1.204,0.513,0.940,0.869,�k��,5.5,�L
2017/08/12,07:30,0.943,1.471,0.979,1.772,1.204,0.513,0.942,0.868,�k��,5.0,�L
2017/08/12,07:40,0.943,1.471,0.977,1.773,1.204,0.513,0.939,0.870,�k��,5.0,�L
2017/08/12,07:50,0.944,1.474,0.980,1.774,1.205,0.512,0.942,0.869,�k��,5.9,�L
2017/08/12,08:00,0.940,1.472,0.979,1.775,1.203,0.512,0.943,0.869,�k��,4.8,�L
2017/08/12,08:10,0.943,1.472,0.978,1.774,1.205,0.512,0.941,0.870,�k��,6.1,�L
2017/08/12,08:20,0.941,1.472,0.980,1.773,1.202,0.512,0.941,0.868,�k��,5.7,�L
2017/08/12,08:30,0.941,1.473,0.977,1.776,1.203,0.512,0.939,0.869,�k�k��,5.3,�L
2017/08/12,08:40,0.942,1.474,0.980,1.776,1.204,0.512,0.942,0.871,�k��,5.0,�L
2017/08/12,08:50,0.943,1.473,0.979,1.775,1.203,0.511,0.940,0.868,�k��,6.0,�L
2017/08/12,09:00,0.941,1.475,0.979,1.776,1.203,0.511,0.941,0.868,�k��,5.1,�L
2017/08/12,09:10,0.939,1.469,0.978,1.778,1.204,0.511,0.942,0.868,�k��,5.5,�L
2017/08/12,09:20,0.940,1.472,0.977,1.773,1.203,0.512,0.941,0.870,�k��,6.0,�L
2017/08/12,09:30,0.941,1.471,0.978,1.773,1.203,0.513,0.941,0.869,�k�k��,5.8,�L
2017/08/12,09:40,0.941,1.472,0.979,1.775,1.204,0.512,0.941,0.870,�k�k��,5.6,�L
2017/08/12,09:50,0.940,1.468,0.979,1.774,1.204,0.513,0.941,0.868,�k�k��,5.8,�L
2017/08/12,10:00,0.941,1.470,0.978,1.774,1.202,0.513,0.939,0.868,�k�k��,5.7,�L
2017/08/12,10:10,0.937,1.469,0.975,1.772,1.200,0.511,0.939,0.866,�k�k��,5.3,�L
2017/08/12,10:20,0.937,1.461,0.974,1.771,1.199,0.511,0.939,0.868,�k�k��,7.0,�L
2017/08/12,10:30,0.932,1.457,0.971,1.770,1.197,0.513,0.940,0.867,�k�k��,6.6,�L
2017/08/12,10:40,0.936,1.457,0.970,1.765,1.197,0.511,0.937,0.865,�k�k��,5.6,�L
2017/08/12,10:50,0.936,1.459,0.972,1.765,1.196,0.511,0.940,0.867,�k�k��,6.3,�L
2017/08/12,11:00,0.933,1.457,0.972,1.763,1.200,0.511,0.939,0.868,�k�k��,7.3,�L
2017/08/12,11:10,0.935,1.460,0.971,1.767,1.199,0.511,0.939,0.865,�k�k��,6.4,�L
2017/08/12,11:20,0.934,1.459,0.971,1.767,1.196,0.510,0.940,0.866,�k�k��,6.4,�L
2017/08/12,11:30,0.934,1.459,0.974,1.766,1.199,0.510,0.940,0.867,�k,6.1,�L
2017/08/12,11:40,0.936,1.462,0.973,1.768,1.199,0.510,0.940,0.866,�k�k��,5.8,�L
2017/08/12,11:50,0.937,1.462,0.973,1.767,1.199,0.511,0.942,0.867,�k,6.0,�L
2017/08/12,12:00,0.935,1.460,0.971,1.766,1.201,0.510,0.941,0.866,�k�k��,6.0,�L
2017/08/12,12:10,0.936,1.461,0.971,1.768,1.199,0.510,0.942,0.867,�k�k��,6.2,��
2017/08/12,12:20,0.936,1.464,0.973,1.766,1.200,0.511,0.941,0.867,�k�k��,7.4,��
2017/08/12,12:30,0.936,1.464,0.972,1.768,1.202,0.510,0.941,0.868,�k,6.4,��
2017/08/12,12:40,0.937,1.464,0.973,1.768,1.200,0.509,0.941,0.867,�k,5.5,��
2017/08/12,12:50,0.936,1.465,0.975,1.768,1.200,0.512,0.940,0.869,�k,6.1,��
2017/08/12,13:00,0.937,1.468,0.976,1.767,1.203,0.511,0.939,0.868,�k�k��,6.1,��
2017/08/12,13:10,0.938,1.465,0.974,1.769,1.205,0.512,0.943,0.869,�k,6.5,�L
2017/08/12,13:20,0.938,1.465,0.975,1.770,1.204,0.510,0.942,0.869,�k,6.0,�L
2017/08/12,13:30,0.940,1.466,0.977,1.764,1.203,0.511,0.941,0.868,�k,6.0,��
2017/08/12,13:40,0.939,1.469,0.973,1.767,1.203,0.510,0.941,0.869,�k,7.1,��
2017/08/12,13:50,0.938,1.467,0.975,1.772,1.203,0.509,0.943,0.869,�k,7.1,��
2017/08/12,14:00,0.940,1.470,0.977,1.766,1.204,0.510,0.943,0.867,�k,7.2,��
2017/08/12,14:10,0.938,1.471,0.976,1.767,1.203,0.510,0.941,0.867,�k,6.7,�L
2017/08/12,14:20,0.939,1.467,0.976,1.772,1.205,0.511,0.942,0.868,�k,5.5,��
2017/08/12,14:30,0.941,1.471,0.976,1.772,1.203,0.511,0.940,0.869,�k,6.5,��
2017/08/12,14:40,0.939,1.469,0.973,1.772,1.201,0.512,0.941,0.868,�k,6.7,�L
2017/08/12,14:50,0.939,1.470,0.975,1.769,1.205,0.511,0.941,0.868,�k,7.0,�L
2017/08/12,15:00,0.940,1.470,0.977,1.774,1.204,0.510,0.942,0.868,�k,6.2,�L
2017/08/12,15:10,0.940,1.472,0.976,1.773,1.204,0.511,0.943,0.868,�k,6.3,�L
2017/08/12,15:20,0.936,1.473,0.976,1.773,1.204,0.511,0.941,0.868,�k,5.8,�L
2017/08/12,15:30,0.940,1.471,0.975,1.776,1.207,0.510,0.942,0.868,�k,6.3,�L
2017/08/12,15:40,0.938,1.470,0.974,1.774,1.205,0.510,0.941,0.869,�k,5.7,�L
2017/08/12,15:50,0.939,1.473,0.974,1.774,1.208,0.510,0.942,0.868,�k,5.2,�L
2017/08/12,16:00,0.937,1.473,0.974,1.777,1.209,0.511,0.942,0.867,�k,6.0,��
2017/08/12,16:10,0.938,1.478,0.975,1.775,1.206,0.513,0.943,0.867,�k,5.8,��
2017/08/12,16:20,0.939,1.474,0.974,1.773,1.209,0.511,0.941,0.869,�k,6.2,��
2017/08/12,16:30,0.941,1.472,0.976,1.775,1.208,0.511,0.943,0.869,�k,6.2,��
2017/08/12,16:40,0.941,1.474,0.976,1.776,1.208,0.512,0.942,0.868,�k,6.6,��
2017/08/12,16:50,0.940,1.474,0.978,1.776,1.209,0.512,0.942,0.867,�k,5.2,��
2017/08/12,17:00,0.939,1.475,0.978,1.774,1.206,0.512,0.942,0.870,�k,6.0,��
2017/08/12,17:10,0.938,1.472,0.976,1.778,1.207,0.511,0.943,0.870,�k,6.9,��
2017/08/12,17:20,0.940,1.473,0.976,1.774,1.211,0.512,0.943,0.869,�k,5.4,��
2017/08/12,17:30,0.940,1.475,0.976,1.775,1.210,0.511,0.943,0.869,�k,7.2,��
2017/08/12,17:40,0.941,1.474,0.977,1.771,1.209,0.511,0.943,0.868,�k,7.8,�L
2017/08/12,17:50,0.941,1.471,0.975,1.773,1.206,0.513,0.942,0.868,�k,7.4,�L
2017/08/12,18:00,0.939,1.477,0.976,1.774,1.208,0.511,0.943,0.869,�k,7.0,�L
2017/08/12,18:10,0.940,1.475,0.976,1.778,1.209,0.511,0.943,0.868,�k,7.7,�L
2017/08/12,18:20,0.939,1.476,0.975,1.777,1.211,0.510,0.944,0.868,�k,6.6,�L
2017/08/12,18:30,0.938,1.477,0.977,1.777,1.206,0.511,0.941,0.871,�k�k��,7.1,�L
2017/08/12,18:40,0.938,1.478,0.975,1.776,1.210,0.512,0.942,0.870,�k,6.7,��
2017/08/12,18:50,0.938,1.477,0.979,1.776,1.211,0.511,0.944,0.868,�k�k��,6.2,��
2017/08/12,19:00,0.938,1.475,0.979,1.774,1.210,0.511,0.943,0.869,�k�k��,5.6,��
2017/08/12,19:10,0.940,1.479,0.979,1.777,1.211,0.511,0.943,0.869,�k�k��,6.4,�L
2017/08/12,19:20,0.940,1.479,0.978,1.778,1.210,0.511,0.942,0.870,�k�k��,6.2,�L
2017/08/12,19:30,0.939,1.480,0.980,1.777,1.211,0.511,0.942,0.871,�k�k��,6.5,�L
2017/08/12,19:40,0.939,1.482,0.979,1.777,1.210,0.512,0.943,0.870,�k�k��,7.1,�L
2017/08/12,19:50,0.939,1.479,0.979,1.775,1.211,0.512,0.940,0.872,�k�k��,6.8,�L
2017/08/12,20:00,0.939,1.480,0.980,1.778,1.211,0.510,0.942,0.873,�k�k��,7.8,�L
2017/08/12,20:10,0.940,1.477,0.979,1.778,1.211,0.511,0.942,0.873,�k�k��,7.2,�L
2017/08/12,20:20,0.940,1.481,0.979,1.777,1.211,0.511,0.942,0.871,�k�k��,6.8,�L
2017/08/12,20:30,0.942,1.477,0.980,1.778,1.212,0.510,0.943,0.871,�k�k��,7.1,�L
2017/08/12,20:40,0.941,1.476,0.980,1.778,1.214,0.511,0.942,0.871,�k�k��,6.8,�L
2017/08/12,20:50,0.940,1.480,0.978,1.778,1.215,0.512,0.942,0.871,�k�k��,7.6,�L
2017/08/12,21:00,0.940,1.478,0.980,1.776,1.212,0.511,0.943,0.870,�k�k��,7.7,�L
2017/08/12,21:10,0.942,1.482,0.980,1.776,1.211,0.510,0.944,0.873,�k�k��,7.2,�L
2017/08/12,21:20,0.939,1.479,0.980,1.776,1.211,0.511,0.944,0.872,�k�k��,6.5,�L
2017/08/12,21:30,0.939,1.477,0.980,1.779,1.212,0.511,0.944,0.872,�k�k��,8.1,�L
2017/08/12,21:40,0.940,1.480,0.982,1.778,1.209,0.510,0.941,0.872,�k�k��,8.1,�L
2017/08/12,21:50,0.940,1.479,0.980,1.777,1.210,0.512,0.944,0.872,�k�k��,7.9,�L
2017/08/12,22:00,0.937,1.480,0.979,1.778,1.210,0.511,0.943,0.871,�k�k��,7.2,�L
2017/08/12,22:10,0.938,1.479,0.981,1.776,1.211,0.511,0.943,0.872,�k�k��,6.2,�L
2017/08/12,22:20,0.938,1.481,0.979,1.775,1.212,0.511,0.942,0.871,�k�k��,7.1,�L
2017/08/12,22:30,0.941,1.482,0.980,1.781,1.211,0.513,0.942,0.871,�k�k��,7.5,�L
2017/08/12,22:40,0.939,1.479,0.978,1.776,1.212,0.512,0.940,0.873,�k�k��,7.5,�L
2017/08/12,22:50,0.936,1.479,0.979,1.777,1.210,0.512,0.941,0.871,�k�k��,7.2,�L
2017/08/12,23:00,0.937,1.476,0.979,1.775,1.206,0.511,0.940,0.871,�k�k��,8.0,�L
2017/08/12,23:10,0.936,1.476,0.975,1.773,1.209,0.510,0.939,0.869,�k�k��,7.6,�L
2017/08/12,23:20,0.936,1.473,0.975,1.776,1.206,0.511,0.939,0.868,�k�k��,7.3,�L
2017/08/12,23:30,0.935,1.473,0.972,1.773,1.206,0.511,0.939,0.868,�k�k��,7.4,�L
2017/08/12,23:40,0.935,1.473,0.973,1.775,1.205,0.510,0.937,0.867,�k�k��,7.7,�L
2017/08/12,23:50,0.936,1.470,0.974,1.772,1.202,0.510,0.938,0.869,�k�k��,7.0,�L
